Location: Unspecified
(41.1637°N, 24.2901°E)
Time: 07:21:10
(UTC+01:00)

ISS - Pass Details

Date: 15 December 2018
Orbit: 401 x 408 km, 51.6° (Epoch: 12 December)

Event Time Altitude Azimuth Distance (km) Brightness Sun altitude
Rises 16:22:48 0° 299° (WNW) 2,317 0.5 -5.5°
Reaches altitude 10° 16:24:59 10° 291° (WNW) 1,454 -0.3 -5.8°
Maximum altitude 16:28:00 36° 223° (SW) 649 -2.0 -6.3°
Drops below altitude 10° 16:31:01 10° 154° (SSE) 1,444 -1.0 -6.9°
Sets 16:33:10 0° 146° (SE) 2,298 -0.1 -7.2°
